{"data":{"norad_id":68055,"intl_designator":"2026-041R","name":"STARLINK-35998","alt_names":[],"object_type":"PAYLOAD","status":"ACTIVE","operator":null,"country":"US","launch_date":"2026-03-02","launch_site_code":"AFETR","launch_vehicle":null,"mission":null,"orbit_class":"UNKNOWN","rcs_meters":null,"size_class":null,"mass_kg":null,"dimensions":null,"purposes":["comms"],"wikipedia_slug":null,"has_3d_model":false,"image_url":null,"decayed_at":null,"tle_current":{"epoch":"2026-09-19T22:09:17.637120Z","epoch_age_seconds":109510,"freshness":"FRESH","line1":"1 68055U 26041R   26262.92312080  .00017420  00000+0  52543-3 0  9995","line2":"2 68055  53.1577 224.3226 0001308 100.8642 259.2508 15.34404779 31175","mean_motion":15.34404779,"eccentricity":0.0001308,"inclination_deg":53.1577,"raan_deg":224.3226,"arg_perigee_deg":100.8642,"mean_anomaly_deg":259.2508,"bstar":0.00052543,"rev_number":3117,"period_min":93.847465786601,"perigee_km":461.79425600333,"apogee_km":463.58381609436,"semimajor_km":6840.8260360488,"source":"CELESTRAK","updated_at":"2026-09-20T09:00:43.750050Z"}}}